Flag for U.S.A. Weather past 2 weeks in Louisville, Kentucky, U.S.A.

59 °F


Feels Like: 58 °F
Forecast: 47 / 60 °F
Wind: 6 mph from Southeast

Location: Standiford Field

Current Time: Nov 28, 2015 at 3:54:29 AM

Latest Report: Nov 28, 2015 at 2:56 AM

Visibility: 10 mi

Pressure: 30.19 "Hg

Humidity: 87%

Dew point: 55 °F

Location of LouisvilleLocation

Historic Weather in Louisville — Graph


Louisville temperature yesterday

Maximum temperature yesterday: 68 °F (at 12:56 PM)
Minimum temperature yesterday: 57 °F (at 12:56 AM)
Average temperature yesterday: 62 °F

Past Weeks' High & Low Weather Summary

High69 °F (Nov 26, 1:56 PM)97% (Nov 18, 12:56 PM)30.53 "Hg (Nov 18, 12:56 PM)
Low27 °F (Nov 23, 1:56 AM)22% (Nov 20, 1:56 PM)29.60 "Hg (Nov 18, 2:56 PM)
Average49 °F56%30.22 "Hg
* Reported Nov 13 2:56 AM — Nov 28 2:56 AM, Louisville, Weather by CustomWeather, © 2015

Note: Actual official high and low records may vary slightly from our data, if they occured in-between our weather recording intervals... More about our weather records


Louisville weather history for previous 24 hours

Time TempWeatherWind HumidityBarometerVisibility
2:56 AM
Sat, Nov 28
59 °FOvercast.6 mph87%30.19 "Hg10 mi
12:56 AM58 °FLight rain. Mostly cloudy.6 mph90%30.22 "Hg10 mi
11:56 PM
Fri, Nov 27
58 °FLight rain. Overcast.5 mph93%30.23 "Hg9 mi
10:56 PM59 °FLight rain. Mostly cloudy.5 mph90%30.24 "Hg8 mi
9:56 PM59 °FLight rain. Overcast.6 mph90%30.25 "Hg8 mi
8:56 PM60 °FLight rain. Mostly cloudy.5 mph86%30.27 "Hg9 mi
7:56 PM60 °FLight rain. Mostly cloudy.6 mph86%30.27 "Hg9 mi
6:56 PM60 °FLight rain. Overcast.6 mph86%30.28 "Hg9 mi
5:56 PM63 °FLight rain. Overcast.5 mph73%30.27 "Hg10 mi
4:56 PM66 °FLight rain. Overcast.9 mph61%30.27 "Hg10 mi
3:56 PM66 °FLight rain. Overcast.12 mph61%30.27 "Hg10 mi
2:56 PM67 °FCloudy.10 mph59%30.27 "Hg10 mi
1:56 PM68 °FMore clouds than sun.13 mph55%30.30 "Hg10 mi
12:56 PM68 °FBroken clouds.16 mph55%30.32 "Hg10 mi
11:56 AM65 °FMore clouds than sun.15 mph59%30.36 "Hg10 mi
10:56 AM64 °FOvercast.8 mph61%30.37 "Hg10 mi
9:56 AM61 °FMostly cloudy.9 mph65%30.38 "Hg10 mi
8:56 AM59 °FMostly cloudy.8 mph69%30.38 "Hg10 mi
7:56 AM57 °FMore clouds than sun.6 mph72%30.38 "Hg10 mi
6:56 AM59 °FMostly cloudy.9 mph64%30.37 "Hg10 mi
5:56 AM60 °FMostly cloudy.12 mph62%30.35 "Hg10 mi
4:56 AM60 °FHigh level clouds.13 mph62%30.35 "Hg10 mi
3:56 AM61 °FOvercast.14 mph58%30.37 "Hg10 mi
Weather by CustomWeather, © 2015

See weather overviewHow to use our weather pages